WZZ926 LHBP-EPWA

Flight info

Callsign WZZ926
Flight time 0h 53m
Altitude 24000
Route LITKU Y301 KALIF/N0434F390 DCT SUPAK DCT ORTEB/N0431F380 DCT KONZI DCT LOGDA
Aircraft A20N/M-SDE2E3FGHIRWXY/LB1

Departure

Time 2026-05-04 20:10
Airport Budapest Liszt Ferenc International Airport (LHBP)

Arrival

Time 2026-05-04 21:03
Airport Warsaw Chopin Airport (EPWA)
Time Latitude Longitude Altitude Speed Heading
2026-05-04 19:41 47.43394 19.26655 457 ft 0 kts 222°
2026-05-04 19:56 47.43400 19.26663 457 ft 4 kts 222°
2026-05-04 19:56 47.43420 19.26691 457 ft 4 kts 222°
2026-05-04 19:57 47.43434 19.26724 456 ft 4 kts 308°
2026-05-04 19:57 47.43431 19.26730 457 ft 0 kts 311°
2026-05-04 19:59 47.43463 19.26675 457 ft 16 kts 312°
2026-05-04 19:59 47.43576 19.26494 457 ft 29 kts 313°
2026-05-04 19:59 47.43708 19.26345 457 ft 0 kts
2026-05-04 19:59 47.43715 19.26359 457 ft 7 kts 52°
2026-05-04 20:00 47.43776 19.26412 457 ft 13 kts 348°
2026-05-04 20:00 47.43855 19.26308 458 ft 18 kts 313°
2026-05-04 20:00 47.43917 19.26220 458 ft 0 kts 336°
2026-05-04 20:00 47.43920 19.26218 458 ft 0 kts 336°
2026-05-04 20:03 47.43928 19.26214 458 ft 5 kts 341°
2026-05-04 20:04 47.43981 19.26241 456 ft 10 kts 41°
2026-05-04 20:04 47.44002 19.26268 459 ft 0 kts 43°
2026-05-04 20:07 47.44006 19.26274 457 ft 7 kts 43°
2026-05-04 20:07 47.44066 19.26398 465 ft 17 kts 73°
2026-05-04 20:08 47.44042 19.26569 467 ft 2 kts 129°
2026-05-04 20:08 47.44041 19.26571 468 ft 0 kts 129°
2026-05-04 20:09 47.44028 19.26592 469 ft 22 kts 131°
2026-05-04 20:09 47.43709 19.27108 472 ft 110 kts 132°
2026-05-04 20:09 47.43027 19.28213 578 ft 166 kts 131°
2026-05-04 20:10 47.42250 19.29461 1479 ft 165 kts 135°
2026-05-04 20:10 47.41560 19.30835 2480 ft 170 kts 126°
2026-05-04 20:10 47.40966 19.32444 3115 ft 188 kts 121°
2026-05-04 20:10 47.40348 19.34246 3791 ft 198 kts 121°
2026-05-04 20:11 47.39696 19.36100 4542 ft 210 kts 121°
2026-05-04 20:11 47.38992 19.38016 5384 ft 214 kts 122°
2026-05-04 20:11 47.38343 19.40021 6244 ft 223 kts 106°
2026-05-04 20:11 47.38330 19.42409 6769 ft 247 kts 75°
2026-05-04 20:12 47.39192 19.44705 7362 ft 266 kts 49°
2026-05-04 20:12 47.40566 19.46686 7918 ft 287 kts 41°
2026-05-04 20:12 47.42097 19.48581 8730 ft 294 kts 40°
2026-05-04 20:12 47.43664 19.50549 9697 ft 298 kts 41°
2026-05-04 20:13 47.45227 19.52613 10473 ft 308 kts 43°
2026-05-04 20:13 47.46855 19.54848 10841 ft 331 kts 44°
2026-05-04 20:13 47.48614 19.57209 11233 ft 350 kts 36°
2026-05-04 20:13 47.50824 19.58749 12054 ft 354 kts 13°
2026-05-04 20:14 47.53279 19.59166 12917 ft 357 kts
2026-05-04 20:14 47.55777 19.59195 13779 ft 361 kts 359°
2026-05-04 20:14 47.58300 19.59138 14556 ft 364 kts 358°
2026-05-04 20:14 47.60848 19.59094 15342 ft 367 kts 359°
2026-05-04 20:15 47.63412 19.59083 16108 ft 370 kts 359°
2026-05-04 20:15 47.65999 19.59098 16858 ft 373 kts 360°
2026-05-04 20:15 47.68603 19.59127 17620 ft 376 kts 360°
2026-05-04 20:15 47.71236 19.59163 18343 ft 380 kts 360°
2026-05-04 20:16 47.73892 19.59200 18980 ft 383 kts 360°
2026-05-04 20:16 47.76574 19.59238 19624 ft 387 kts 360°
2026-05-04 20:16 47.79275 19.59275 20257 ft 390 kts 360°
2026-05-04 20:16 47.81996 19.59311 20883 ft 393 kts 360°
2026-05-04 20:17 47.84745 19.59348 21515 ft 396 kts 360°
2026-05-04 20:17 47.87471 19.59384 22119 ft 400 kts 360°
2026-05-04 20:17 47.90305 19.59421 22735 ft 403 kts 360°
2026-05-04 20:17 47.93080 19.59458 23326 ft 407 kts 360°
2026-05-04 20:18 47.95928 19.59495 23827 ft 410 kts 359°
2026-05-04 20:18 47.98796 19.59533 23992 ft 411 kts 360°
2026-05-04 20:18 48.01666 19.59570 24042 ft 411 kts 359°
2026-05-04 20:18 48.04551 19.59608 24045 ft 411 kts 359°
2026-05-04 20:19 48.07377 19.59646 24043 ft 411 kts 359°
2026-05-04 20:19 48.10233 19.59683 24047 ft 411 kts 359°
2026-05-04 20:19 48.13133 19.59721 24047 ft 411 kts 359°
2026-05-04 20:19 48.15993 19.59758 24048 ft 411 kts 359°
2026-05-04 20:20 48.18818 19.59794 24044 ft 411 kts 359°
2026-05-04 20:20 48.21692 19.59832 24048 ft 411 kts 359°
2026-05-04 20:20 48.24553 19.59714 24048 ft 411 kts 355°
2026-05-04 20:20 48.27406 19.59425 24044 ft 411 kts 355°
2026-05-04 20:21 48.30264 19.59149 24045 ft 411 kts 355°
2026-05-04 20:21 48.33118 19.58878 24049 ft 411 kts 355°
2026-05-04 20:21 48.38826 19.58332 24050 ft 411 kts 355°
2026-05-04 20:22 48.41679 19.58057 24048 ft 411 kts 355°
2026-05-04 20:22 48.44537 19.57780 24049 ft 411 kts 355°
2026-05-04 20:22 48.47389 19.57504 24050 ft 411 kts 355°
2026-05-04 20:22 48.50215 19.57424 24054 ft 411 kts
2026-05-04 20:23 48.53068 19.57892 24054 ft 413 kts
2026-05-04 20:23 48.55887 19.58707 24052 ft 413 kts
2026-05-04 20:23 48.58709 19.59503 24059 ft 413 kts
2026-05-04 20:23 48.61535 19.60292 24060 ft 413 kts
2026-05-04 20:24 48.64357 19.61080 24058 ft 412 kts
2026-05-04 20:24 48.67179 19.61873 24060 ft 413 kts
2026-05-04 20:24 48.70001 19.62669 24061 ft 413 kts
2026-05-04 20:24 48.72826 19.63470 24066 ft 413 kts
2026-05-04 20:25 48.75651 19.64271 24063 ft 413 kts
2026-05-04 20:25 48.78480 19.65075 24064 ft 413 kts
2026-05-04 20:25 48.81304 19.65877 24066 ft 413 kts
2026-05-04 20:25 48.84131 19.66681 24065 ft 413 kts
2026-05-04 20:26 48.86961 19.67487 24068 ft 413 kts
2026-05-04 20:26 48.89791 19.68295 24066 ft 413 kts
2026-05-04 20:26 48.92577 19.69092 24066 ft 413 kts
2026-05-04 20:26 48.95403 19.69899 24068 ft 413 kts
2026-05-04 20:27 48.98233 19.70709 24067 ft 413 kts
2026-05-04 20:27 49.01064 19.71520 24063 ft 413 kts
2026-05-04 20:27 49.03891 19.72332 24064 ft 413 kts
2026-05-04 20:27 49.06719 19.73144 24065 ft 413 kts
2026-05-04 20:28 49.09555 19.73959 24064 ft 413 kts
2026-05-04 20:28 49.12382 19.74773 24065 ft 414 kts
2026-05-04 20:28 49.15207 19.75587 24064 ft 414 kts
2026-05-04 20:28 49.18034 19.76402 24059 ft 413 kts
2026-05-04 20:29 49.20860 19.77218 24059 ft 413 kts
2026-05-04 20:29 49.23686 19.78036 24057 ft 413 kts
2026-05-04 20:29 49.26501 19.78852 24055 ft 412 kts 10°
2026-05-04 20:29 49.29281 19.79969 24055 ft 413 kts 18°
2026-05-04 20:30 49.31946 19.81656 24052 ft 414 kts 25°
2026-05-04 20:30 49.34448 19.83851 24049 ft 415 kts 31°
2026-05-04 20:30 49.36900 19.86193 24044 ft 415 kts 30°
2026-05-04 20:30 49.39358 19.88517 24046 ft 415 kts 30°
2026-05-04 20:31 49.41825 19.90850 24036 ft 415 kts 31°
2026-05-04 20:31 49.44283 19.93179 24037 ft 415 kts 31°
2026-05-04 20:31 49.46741 19.95515 24037 ft 416 kts 31°
2026-05-04 20:31 49.49199 19.97858 24035 ft 416 kts 31°
2026-05-04 20:32 49.51666 20.00213 24032 ft 416 kts 31°
2026-05-04 20:32 49.54091 20.02532 24030 ft 416 kts 31°
2026-05-04 20:32 49.56550 20.04884 24030 ft 416 kts 31°
2026-05-04 20:32 49.59013 20.07245 24016 ft 416 kts 31°
2026-05-04 20:33 49.61473 20.09605 24024 ft 416 kts 31°
2026-05-04 20:33 49.63930 20.11965 24025 ft 416 kts 31°
2026-05-04 20:33 49.66396 20.14336 24023 ft 417 kts 31°
2026-05-04 20:33 49.68858 20.16707 24018 ft 417 kts 31°
2026-05-04 20:34 49.71316 20.19076 24013 ft 417 kts 31°
2026-05-04 20:34 49.72950 20.20653 24005 ft 417 kts 31°
2026-05-04 20:34 49.75416 20.23034 24010 ft 417 kts 31°
2026-05-04 20:34 49.77877 20.25415 24000 ft 417 kts 31°
2026-05-04 20:35 49.80340 20.27800 24006 ft 417 kts 31°
2026-05-04 20:35 49.82807 20.30191 24000 ft 418 kts 31°
2026-05-04 20:35 49.85273 20.32585 24001 ft 418 kts 31°
2026-05-04 20:35 49.87734 20.34976 23999 ft 418 kts 31°
2026-05-04 20:36 49.90207 20.37383 23993 ft 418 kts 31°
2026-05-04 20:36 49.92672 20.39784 23991 ft 418 kts 31°
2026-05-04 20:36 49.95109 20.42161 23992 ft 418 kts 31°
2026-05-04 20:36 49.97573 20.44567 23987 ft 418 kts 31°
2026-05-04 20:37 50.00031 20.46970 23997 ft 418 kts 31°
2026-05-04 20:37 50.02495 20.49382 23988 ft 419 kts 31°
2026-05-04 20:37 50.04961 20.51800 23986 ft 419 kts 31°
2026-05-04 20:37 50.07432 20.54194 23982 ft 418 kts 27°
2026-05-04 20:38 50.10077 20.56063 23982 ft 416 kts 17°
2026-05-04 20:38 50.12870 20.57146 23982 ft 413 kts
2026-05-04 20:38 50.15731 20.57532 23984 ft 412 kts
2026-05-04 20:38 50.18596 20.57818 23976 ft 412 kts
2026-05-04 20:39 50.21458 20.58116 23975 ft 412 kts
2026-05-04 20:39 50.24321 20.58417 23971 ft 412 kts
2026-05-04 20:39 50.27190 20.58717 23978 ft 413 kts
2026-05-04 20:39 50.30053 20.59015 23975 ft 412 kts
2026-05-04 20:40 50.32923 20.59313 23975 ft 413 kts
2026-05-04 20:40 50.35784 20.59609 23978 ft 413 kts
2026-05-04 20:40 50.38622 20.59903 23974 ft 413 kts
2026-05-04 20:40 50.41484 20.60200 23969 ft 413 kts
2026-05-04 20:41 50.44354 20.60498 23969 ft 413 kts
2026-05-04 20:41 50.47222 20.60797 23971 ft 413 kts
2026-05-04 20:41 50.50090 20.61096 23973 ft 413 kts
2026-05-04 20:41 50.52963 20.61396 23974 ft 413 kts
2026-05-04 20:42 50.55828 20.61695 23975 ft 413 kts
2026-05-04 20:42 50.58697 20.61995 23968 ft 413 kts
2026-05-04 20:42 50.61561 20.62295 23967 ft 413 kts
2026-05-04 20:42 50.64434 20.62595 23972 ft 413 kts
2026-05-04 20:43 50.67309 20.62896 23963 ft 413 kts
2026-05-04 20:43 50.70178 20.63196 23969 ft 412 kts
2026-05-04 20:43 50.73008 20.63493 23969 ft 413 kts
2026-05-04 20:43 50.75877 20.63795 23969 ft 413 kts
2026-05-04 20:44 50.78753 20.64098 23963 ft 413 kts
2026-05-04 20:44 50.81656 20.64404 23965 ft 413 kts
2026-05-04 20:44 50.84524 20.64707 23967 ft 413 kts
2026-05-04 20:44 50.87354 20.65005 23965 ft 413 kts
2026-05-04 20:45 50.90257 20.65313 23967 ft 413 kts
2026-05-04 20:45 50.93122 20.65616 23963 ft 413 kts
2026-05-04 20:45 50.95956 20.65917 23962 ft 413 kts
2026-05-04 20:45 50.98824 20.66221 23965 ft 413 kts
2026-05-04 20:46 51.01700 20.66527 23964 ft 413 kts
2026-05-04 20:46 51.04570 20.66832 23964 ft 413 kts
2026-05-04 20:46 51.07447 20.67139 23965 ft 414 kts
2026-05-04 20:46 51.10324 20.67446 23961 ft 414 kts
2026-05-04 20:47 51.13201 20.67753 23963 ft 413 kts
2026-05-04 20:47 51.16040 20.68057 23958 ft 413 kts
2026-05-04 20:47 51.18920 20.68365 23960 ft 414 kts
2026-05-04 20:47 51.21791 20.68673 23959 ft 414 kts
2026-05-04 20:48 51.24663 20.68981 23957 ft 414 kts
2026-05-04 20:48 51.27537 20.69407 23956 ft 415 kts
2026-05-04 20:48 51.30357 20.70420 23957 ft 418 kts 14°
2026-05-04 20:48 51.33117 20.71899 23955 ft 418 kts 17°
2026-05-04 20:49 51.35873 20.73440 23956 ft 419 kts 18°
2026-05-04 20:49 51.38629 20.74937 23956 ft 418 kts 15°
2026-05-04 20:49 51.41411 20.76366 23949 ft 419 kts 15°
2026-05-04 20:49 51.44177 20.77811 23758 ft 417 kts 16°
2026-05-04 20:50 51.46901 20.79276 23092 ft 420 kts 17°
2026-05-04 20:50 51.49728 20.80829 22054 ft 427 kts 17°
2026-05-04 20:50 51.52522 20.82384 21138 ft 431 kts 17°
2026-05-04 20:50 51.55344 20.83966 20454 ft 428 kts 17°
2026-05-04 20:51 51.58148 20.85542 19778 ft 424 kts 17°
2026-05-04 20:51 51.60930 20.87106 19106 ft 422 kts 17°
2026-05-04 20:51 51.63687 20.88657 18427 ft 419 kts 17°
2026-05-04 20:51 51.66455 20.90213 17516 ft 421 kts 17°
2026-05-04 20:52 51.69225 20.91774 16602 ft 422 kts 17°
2026-05-04 20:52 51.72000 20.93339 15715 ft 423 kts 17°
2026-05-04 20:52 51.74771 20.94904 14941 ft 421 kts 17°
2026-05-04 20:52 51.77528 20.96465 14220 ft 417 kts 17°
2026-05-04 20:53 51.80256 20.98010 13488 ft 414 kts 17°
2026-05-04 20:53 51.82971 20.99550 12701 ft 411 kts 17°
2026-05-04 20:53 51.85661 21.01077 11979 ft 407 kts 17°
2026-05-04 20:53 51.88247 21.02549 11739 ft 392 kts 17°
2026-05-04 20:54 51.90789 21.04000 11366 ft 381 kts 17°
2026-05-04 20:54 51.93276 21.05417 10784 ft 378 kts 17°
2026-05-04 20:54 51.95754 21.06827 10181 ft 376 kts 17°
2026-05-04 20:54 51.98221 21.08234 9466 ft 376 kts 17°
2026-05-04 20:55 52.00758 21.09085 8691 ft 371 kts 358°
2026-05-04 20:55 52.03272 21.08488 7919 ft 363 kts 338°
2026-05-04 20:55 52.05516 21.06709 6889 ft 357 kts 326°
2026-05-04 20:55 52.07642 21.04626 5946 ft 353 kts 324°
2026-05-04 20:56 52.09370 21.01996 5435 ft 330 kts 302°
2026-05-04 20:56 52.10245 20.98776 5148 ft 304 kts 279°
2026-05-04 20:56 52.10249 20.95453 4668 ft 290 kts 256°
2026-05-04 20:56 52.09420 20.92508 3876 ft 290 kts 233°
2026-05-04 20:57 52.07862 20.90379 2942 ft 299 kts 207°
2026-05-04 20:57 52.05867 20.89610 2423 ft 293 kts 181°
2026-05-04 20:57 52.03934 20.90353 2160 ft 281 kts 154°
2026-05-04 20:57 52.02510 20.92346 2031 ft 265 kts 125°
2026-05-04 20:58 52.01858 20.94995 1998 ft 244 kts 104°
2026-05-04 20:58 52.01547 20.97570 1988 ft 221 kts 90°
2026-05-04 20:58 52.01739 20.99912 1983 ft 200 kts 72°
2026-05-04 20:58 52.02444 21.01610 2036 ft 168 kts 32°
2026-05-04 20:59 52.03449 21.02226 2004 ft 147 kts
2026-05-04 20:59 52.04460 21.02081 1999 ft 145 kts 339°
2026-05-04 20:59 52.05427 21.01634 1991 ft 145 kts 345°
2026-05-04 20:59 52.06426 21.01719 1979 ft 150 kts 12°
2026-05-04 21:00 52.07343 21.02563 1885 ft 156 kts 36°
2026-05-04 21:00 52.08215 21.03560 1558 ft 149 kts 22°
2026-05-04 21:00 52.09161 21.03761 1295 ft 137 kts 327°
2026-05-04 21:00 52.09949 21.02834 1256 ft 141 kts 319°
2026-05-04 21:01 52.10747 21.01912 1195 ft 141 kts 324°
2026-05-04 21:01 52.11594 21.01084 1128 ft 142 kts 328°
2026-05-04 21:01 52.12462 21.00312 1051 ft 143 kts 330°
2026-05-04 21:01 52.13337 20.99549 854 ft 142 kts 329°
2026-05-04 21:02 52.14202 20.98777 682 ft 142 kts 330°
2026-05-04 21:02 52.15077 20.98022 474 ft 142 kts 330°
2026-05-04 21:02 52.15935 20.97268 372 ft 137 kts 330°
2026-05-04 21:02 52.16690 20.96607 368 ft 91 kts 333°
2026-05-04 21:03 52.16962 20.96373 364 ft 34 kts 336°
2026-05-04 21:03 52.17028 20.96399 361 ft 13 kts 54°
2026-05-04 21:03 52.17083 20.96548 364 ft 17 kts 62°
2026-05-04 21:03 52.17146 20.96738 361 ft 19 kts 62°
2026-05-04 21:04 52.17134 20.96855 365 ft 7 kts 149°
2026-05-04 21:04 52.17121 20.96892 361 ft 3 kts 91°
2026-05-04 21:04 52.17135 20.96960 365 ft 10 kts 65°
2026-05-04 21:04 52.17151 20.97015 364 ft 0 kts 63°